TimeCDT,TemperatureF,Dew PointF,Humidity,Sea Level PressureIn,VisibilityMPH,Wind Direction,Wind SpeedMPH,Gust SpeedMPH,PrecipitationIn,Events,Conditions,WindDirDegrees,DateUTC
12:15 AM,77.0,68.0,74,29.78,10.0,SE,5.8,-,N/A,,Clear,130,2014-05-12 05:15:00
12:35 AM,77.0,68.0,74,29.78,10.0,SE,6.9,-,N/A,,Clear,140,2014-05-12 05:35:00
12:55 AM,77.0,68.0,74,29.78,10.0,SE,8.1,-,N/A,,Clear,130,2014-05-12 05:55:00
1:15 AM,77.0,66.2,69,29.78,10.0,ESE,11.5,16.1,N/A,,Clear,120,2014-05-12 06:15:00
1:35 AM,77.0,66.2,69,29.78,10.0,SE,11.5,17.3,N/A,,Clear,140,2014-05-12 06:35:00
1:55 AM,77.0,66.2,69,29.77,10.0,SSE,13.8,20.7,N/A,,Clear,150,2014-05-12 06:55:00
2:15 AM,77.0,66.2,69,29.77,10.0,SSE,12.7,18.4,N/A,,Clear,160,2014-05-12 07:15:00
2:35 AM,77.0,66.2,69,29.77,10.0,SSE,9.2,-,N/A,,Clear,160,2014-05-12 07:35:00
2:55 AM,77.0,66.2,69,29.77,10.0,SSE,9.2,-,N/A,,Clear,150,2014-05-12 07:55:00
3:15 AM,77.0,66.2,69,29.78,10.0,South,10.4,-,N/A,,Clear,170,2014-05-12 08:15:00
3:35 AM,75.2,66.2,73,29.78,10.0,SSE,9.2,-,N/A,,Clear,160,2014-05-12 08:35:00
3:55 AM,75.2,66.2,73,29.79,10.0,SSE,10.4,-,N/A,,Clear,160,2014-05-12 08:55:00
4:15 AM,75.2,66.2,73,29.79,10.0,SSE,10.4,-,N/A,,Mostly Cloudy,160,2014-05-12 09:15:00
4:35 AM,77.0,66.2,69,29.80,10.0,SSE,9.2,-,N/A,,Overcast,160,2014-05-12 09:35:00
4:55 AM,77.0,66.2,69,29.81,10.0,SSE,8.1,-,N/A,,Overcast,160,2014-05-12 09:55:00
5:35 AM,77.0,66.2,69,29.82,10.0,South,5.8,-,N/A,,Overcast,170,2014-05-12 10:35:00
5:55 AM,77.0,64.4,65,29.83,10.0,South,6.9,-,N/A,,Overcast,190,2014-05-12 10:55:00
6:15 AM,77.0,64.4,65,29.84,10.0,SSW,5.8,-,N/A,,Mostly Cloudy,200,2014-05-12 11:15:00
6:35 AM,77.0,66.2,69,29.87,10.0,SSW,6.9,-,N/A,,Overcast,210,2014-05-12 11:35:00
6:55 AM,77.0,66.2,69,29.87,10.0,SSW,8.1,-,N/A,,Mostly Cloudy,210,2014-05-12 11:55:00
7:15 AM,77.0,66.2,69,29.87,10.0,South,4.6,-,N/A,,Mostly Cloudy,190,2014-05-12 12:15:00
7:35 AM,77.0,68.0,74,29.88,10.0,SSW,4.6,-,N/A,,Mostly Cloudy,200,2014-05-12 12:35:00
7:55 AM,77.0,68.0,74,29.89,10.0,SSW,5.8,-,N/A,,Scattered Clouds,200,2014-05-12 12:55:00
8:15 AM,77.0,68.0,74,29.88,10.0,South,5.8,-,N/A,,Clear,190,2014-05-12 13:15:00
8:35 AM,78.8,68.0,69,29.88,10.0,South,6.9,-,N/A,,Scattered Clouds,170,2014-05-12 13:35:00
8:55 AM,78.8,68.0,69,29.88,10.0,South,6.9,-,N/A,,Scattered Clouds,180,2014-05-12 13:55:00
9:15 AM,80.6,68.0,65,29.89,10.0,South,10.4,18.4,N/A,,Clear,170,2014-05-12 14:15:00
9:35 AM,80.6,68.0,65,29.89,10.0,South,10.4,-,N/A,,Scattered Clouds,170,2014-05-12 14:35:00
9:55 AM,80.6,68.0,65,29.89,10.0,South,15.0,23.0,N/A,,Scattered Clouds,170,2014-05-12 14:55:00
10:15 AM,82.4,68.0,62,29.89,10.0,South,10.4,20.7,N/A,,Clear,180,2014-05-12 15:15:00
10:35 AM,82.4,68.0,62,29.88,10.0,SSE,12.7,18.4,N/A,,Clear,160,2014-05-12 15:35:00
10:55 AM,82.4,68.0,62,29.88,10.0,South,13.8,23.0,N/A,,Scattered Clouds,180,2014-05-12 15:55:00
11:15 AM,82.4,68.0,62,29.87,10.0,South,13.8,26.5,N/A,,Clear,180,2014-05-12 16:15:00
11:35 AM,82.4,69.8,66,29.88,10.0,South,17.3,21.9,N/A,,Scattered Clouds,180,2014-05-12 16:35:00
11:55 AM,82.4,69.8,66,29.88,10.0,SSE,13.8,18.4,N/A,,Scattered Clouds,160,2014-05-12 16:55:00
12:15 PM,84.2,69.8,62,29.88,10.0,South,9.2,18.4,N/A,,Scattered Clouds,170,2014-05-12 17:15:00
12:35 PM,84.2,68.0,58,29.87,10.0,South,16.1,20.7,N/A,,Clear,170,2014-05-12 17:35:00
12:55 PM,84.2,68.0,58,29.86,10.0,South,15.0,25.3,N/A,Thunderstorm,Scattered Clouds,170,2014-05-12 17:55:00
1:15 PM,82.4,68.0,62,29.85,10.0,South,16.1,21.9,N/A,,Scattered Clouds,170,2014-05-12 18:15:00
1:35 PM,84.2,68.0,58,29.85,10.0,South,18.4,23.0,N/A,,Scattered Clouds,180,2014-05-12 18:35:00
1:55 PM,86.0,69.8,58,29.84,10.0,South,15.0,19.6,N/A,Thunderstorm,Clear,170,2014-05-12 18:55:00
2:35 PM,84.2,68.0,58,29.82,10.0,South,11.5,21.9,N/A,,Clear,190,2014-05-12 19:35:00
2:55 PM,84.2,68.0,58,29.82,10.0,South,13.8,26.5,N/A,,Clear,180,2014-05-12 19:55:00
3:15 PM,82.4,69.8,66,29.82,10.0,South,9.2,19.6,N/A,,Scattered Clouds,190,2014-05-12 20:15:00
3:35 PM,80.6,69.8,70,29.83,10.0,SSW,9.2,-,N/A,,Scattered Clouds,200,2014-05-12 20:35:00
3:55 PM,69.8,60.8,73,29.86,10.0,WNW,17.3,29.9,N/A,Rain-Thunderstorm,Light Thunderstorms and Rain,300,2014-05-12 20:55:00
4:15 PM,66.2,64.4,94,29.91,3.0,WSW,11.5,-,0.22,Rain-Thunderstorm,Heavy Thunderstorms and Rain,250,2014-05-12 21:15:00
4:35 PM,64.4,64.4,100,29.89,2.0,WNW,13.8,24.2,0.56,Rain-Thunderstorm,Heavy Thunderstorms and Rain,290,2014-05-12 21:35:00
4:55 PM,64.4,64.4,100,29.90,5.0,SW,4.6,-,0.66,Rain-Thunderstorm,Thunderstorms and Rain,230,2014-05-12 21:55:00
5:15 PM,64.4,64.4,100,29.87,10.0,West,4.6,-,N/A,Rain-Thunderstorm,Light Thunderstorms and Rain,260,2014-05-12 22:15:00
5:35 PM,64.4,64.4,100,29.90,10.0,WSW,6.9,-,0.01,Rain-Thunderstorm,Light Thunderstorms and Rain,250,2014-05-12 22:35:00
5:55 PM,64.4,64.4,100,29.90,7.0,Calm,Calm,-,0.03,Rain-Thunderstorm,Thunderstorms and Rain,0,2014-05-12 22:55:00
6:15 PM,64.4,64.4,100,29.87,10.0,North,3.5,-,0.01,Rain-Thunderstorm,Light Thunderstorms and Rain,360,2014-05-12 23:15:00
6:35 PM,64.4,64.4,100,29.92,7.0,Calm,Calm,-,0.03,Rain-Thunderstorm,Rain,0,2014-05-12 23:35:00
6:55 PM,64.4,64.4,100,29.92,7.0,WNW,5.8,-,0.05,Rain-Thunderstorm,Thunderstorms and Rain,290,2014-05-12 23:55:00
7:15 PM,64.4,64.4,100,29.91,5.0,NNW,3.5,-,0.05,Rain-Thunderstorm,Rain,340,2014-05-13 00:15:00
7:35 PM,62.6,62.6,100,29.92,7.0,NW,9.2,-,0.11,Rain-Thunderstorm,Heavy Thunderstorms and Rain,320,2014-05-13 00:35:00
7:55 PM,62.6,62.6,100,29.95,7.0,WNW,15.0,-,0.16,Rain,Rain,290,2014-05-13 00:55:00
8:15 PM,60.8,60.8,100,29.95,10.0,NNW,12.7,-,0.04,Rain-Thunderstorm,Rain,330,2014-05-13 01:15:00
8:35 PM,60.8,59.0,94,29.92,10.0,North,8.1,-,0.07,Rain,Rain,350,2014-05-13 01:35:00
8:55 PM,60.8,59.0,94,29.86,10.0,ENE,10.4,-,0.07,Rain,Light Rain,60,2014-05-13 01:55:00
9:15 PM,60.8,60.8,100,29.90,10.0,South,5.8,-,N/A,,Clear,190,2014-05-13 02:15:00
9:35 PM,59.0,59.0,100,29.97,10.0,WNW,13.8,23.0,0.01,Rain,Light Rain,290,2014-05-13 02:35:00
9:55 PM,59.0,57.2,94,29.97,10.0,NNW,10.4,-,0.01,,Overcast,330,2014-05-13 02:55:00
10:15 PM,59.0,55.4,88,29.98,10.0,NNW,6.9,-,N/A,,Light Drizzle,340,2014-05-13 03:15:00
10:35 PM,59.0,57.2,94,30.00,10.0,NNW,3.5,-,N/A,Rain,Light Rain,340,2014-05-13 03:35:00
10:55 PM,59.0,57.2,94,30.00,10.0,Calm,Calm,-,N/A,,Overcast,0,2014-05-13 03:55:00
11:15 PM,59.0,55.4,88,30.00,10.0,NNW,4.6,-,N/A,Rain,Light Rain,340,2014-05-13 04:15:00
11:35 PM,59.0,55.4,88,30.05,10.0,West,10.4,-,N/A,,Mostly Cloudy,280,2014-05-13 04:35:00
11:55 PM,57.2,55.4,94,30.03,4.0,North,10.4,18.4,N/A,Rain,Heavy Rain,350,2014-05-13 04:55:00